Latest Coastal Weather Observations for Lihou Reef Lighthouse

IDQ60701

Issued at 4:51 pm EST Saturday 25 February 2017 (issued every 10 minutes, with the page automatically refreshed every 10 minutes)

About coastal observations | Map of coastal stations | Coastal observations for QLD | Marine services | Other Formats
Station Details ID: 200880 Name: LIHOU REEF LIGHTHOUSE Lat: -17.13 Lon: 152.15 Height: 0.0 m
Data from the previous 72 hours. | See also: Recent months at Lihou Reef Lighthouse
Date/Time
EST
Temp
°C
Wind Pressure Rain since
9am
mm
Weather Cloud Vis
km
Sea
Height
m
Swell
Dir  Spd
kts
Gust
kts
hPa Trend Height
m
Period
s
Dir
25/04:30pm 28.8 SE 14 16 1007.4 - - - - - - - - -
25/04:00pm 28.9 SE 14 16 1007.4 - - - - - - - - -
25/03:30pm 28.9 SE 14 16 1007.3 - - - - - - - - -
25/03:00pm 29.0 SE 13 16 1007.5 - - - - - - - - -
25/02:30pm 28.9 SE 13 15 1007.7 - - - - - - - - -
25/02:00pm 28.9 SE 15 18 1008.0 - - - - - - - - -
25/01:30pm 29.0 SE 14 16 1008.5 - - - - - - - - -
25/01:00pm 29.0 SSE 14 17 1008.8 - - - - - - - - -
25/12:30pm 28.9 SE 15 18 1008.9 - - - - - - - - -
25/12:00pm 29.0 SE 15 17 1009.2 - - - - - - - - -
25/11:30am 28.9 SE 14 17 1009.5 - - - - - - - - -
25/11:00am 28.9 SE 15 18 1009.8 - - - - - - - - -
25/10:30am 29.0 SE 15 18 1010.1 - - - - - - - - -
25/10:00am 28.9 SE 16 18 1010.1 - - - - - - - - -
25/09:30am 28.8 SE 16 21 1010.4 - - - - - - - - -
25/09:00am 28.9 SE 17 20 1010.4 - - - - - - - - -
25/08:30am 28.9 SE 16 18 1010.4 - - - - - - - - -
25/08:00am 28.9 SE 16 19 1010.2 - - - - - - - - -
25/07:30am 28.9 SE 16 19 1009.9 - - - - - - - - -
25/07:00am 28.8 SE 17 21 1009.5 - - - - - - - - -
25/06:30am 28.6 SE 16 19 1009.2 - - - - - - - - -
25/06:00am 28.5 SSE 18 21 1009.2 - - - - - - - - -
25/05:30am 28.1 SE 17 19 1008.9 - - - - - - - - -
25/05:00am 28.4 SSE 16 19 1008.8 - - - - - - - - -
25/04:30am 28.3 SSE 17 19 1008.5 - - - - - - - - -
25/04:00am 28.5 SSE 17 21 1008.4 - - - - - - - - -
25/03:30am 28.4 SSE 17 22 1008.3 - - - - - - - - -
25/03:00am 28.5 SSE 16 21 1008.4 - - - - - - - - -
25/02:30am 28.4 SSE 15 18 1008.6 - - - - - - - - -
25/02:00am 28.6 SE 15 17 1008.8 - - - - - - - - -
25/01:30am 28.5 SE 15 18 1009.0 - - - - - - - - -
25/01:00am 28.5 SE 16 19 1009.2 - - - - - - - - -
25/12:30am 28.5 SSE 15 17 1009.5 - - - - - - - - -
25/12:00am 28.8 SSE 16 19 1009.8 - - - - - - - - -
 
Date/Time
EST
Temp
°C
Wind Pressure Rain since
9am
mm
Weather Cloud Vis
km
Sea
Height
m
Swell
Dir  Spd
kts
Gust
kts
hPa Trend Height
m
Period
s
Dir
24/11:30pm 28.7 ESE 16 18 1010.4 - - - - - - - - -
24/11:00pm 28.7 ESE 15 18 1010.6 - - - - - - - - -
24/10:30pm 28.6 SE 16 18 1010.8 - - - - - - - - -
24/10:00pm 28.6 SE 15 18 1010.9 - - - - - - - - -
24/09:30pm 28.7 SE 16 18 1010.8 - - - - - - - - -
24/09:00pm 28.8 SSE 14 17 1011.0 - - - - - - - - -
24/08:30pm 28.9 SSE 14 16 1010.9 - - - - - - - - -
24/08:00pm 28.7 SSE 13 16 1010.6 - - - - - - - - -
24/07:30pm 28.7 SSE 14 17 1010.4 - - - - - - - - -
24/07:00pm 28.9 SSE 14 16 1010.3 - - - - - - - - -
24/06:30pm 28.8 SSE 13 16 1010.1 - - - - - - - - -
24/06:00pm 29.0 SSE 14 16 1009.8 - - - - - - - - -
24/05:30pm 29.0 SSE 13 17 1009.5 - - - - - - - - -
24/05:00pm 29.1 SSE 13 15 1009.3 - - - - - - - - -
24/04:30pm 29.2 SE 13 16 1009.3 - - - - - - - - -
24/04:00pm 29.1 SE 12 15 1009.2 - - - - - - - - -
24/03:30pm 29.1 SE 13 15 1008.9 - - - - - - - - -
24/03:00pm 28.9 SE 11 13 1009.1 - - - - - - - - -
24/02:30pm 29.1 SE 10 13 1009.5 - - - - - - - - -
24/02:00pm 28.9 SE 12 14 1009.8 - - - - - - - - -
24/01:30pm 28.9 SE 11 12 1010.0 - - - - - - - - -
24/01:00pm 29.1 SE 10 12 1010.4 - - - - - - - - -
24/12:30pm 29.3 SE 11 13 1010.9 - - - - - - - - -
24/12:00pm 29.1 SE 11 13 1011.3 - - - - - - - - -
24/11:30am 29.3 SE 11 13 1011.7 - - - - - - - - -
24/11:00am 29.1 SE 12 13 1011.8 - - - - - - - - -
24/10:30am 29.0 SE 11 13 1012.1 - - - - - - - - -
24/10:00am 29.0 SE 11 13 1012.1 - - - - - - - - -
24/09:30am 28.9 SE 11 13 1012.3 - - - - - - - - -
24/09:00am 28.9 SE 12 14 1012.2 - - - - - - - - -
24/08:30am 28.8 SE 11 13 1012.2 - - - - - - - - -
24/08:00am 28.8 SE 11 13 1012.0 - - - - - - - - -
24/07:30am 28.7 SE 13 15 1011.8 - - - - - - - - -
24/07:00am 28.7 SE 12 15 1011.5 - - - - - - - - -
24/06:30am 28.8 SE 12 14 1011.3 - - - - - - - - -
24/06:00am 28.4 SE 12 14 1011.1 - - - - - - - - -
24/05:30am 27.6 SE 13 15 1010.9 - - - - - - - - -
24/05:00am 28.4 ESE 13 15 1010.6 - - - - - - - - -
24/04:30am 28.5 ESE 12 14 1010.5 - - - - - - - - -
24/04:00am 28.3 ESE 10 12 1010.4 - - - - - - - - -
24/03:30am 28.4 ESE 11 14 1010.4 - - - - - - - - -
24/03:00am 28.4 SE 11 13 1010.5 - - - - - - - - -
24/02:30am 28.5 SE 9 11 1010.6 - - - - - - - - -
24/02:00am 28.3 SE 10 11 1010.9 - - - - - - - - -
24/01:30am 28.6 SE 11 13 1011.2 - - - - - - - - -
24/01:00am 28.6 SE 12 14 1011.7 - - - - - - - - -
24/12:30am 28.6 SSE 11 13 1012.0 - - - - - - - - -
24/12:00am 28.6 SSE 11 14 1012.3 - - - - - - - - -
 
Date/Time
EST
Temp
°C
Wind Pressure Rain since
9am
mm
Weather Cloud Vis
km
Sea
Height
m
Swell
Dir  Spd
kts
Gust
kts
hPa Trend Height
m
Period
s
Dir
23/11:30pm 28.7 SE 11 13 1012.6 - - - - - - - - -
23/11:00pm 28.7 SE 10 12 1012.8 - - - - - - - - -
23/10:30pm 28.8 SE 11 12 1012.8 - - - - - - - - -
23/10:00pm 28.8 SE 12 14 1012.7 - - - - - - - - -
23/09:30pm 28.9 SE 13 15 1012.7 - - - - - - - - -
23/09:00pm 28.9 ESE 14 16 1012.6 - - - - - - - - -
23/08:30pm 29.0 SE 13 15 1012.4 - - - - - - - - -
23/08:00pm 29.2 ESE 13 16 1012.0 - - - - - - - - -
23/07:30pm 29.0 SE 12 16 1011.9 - - - - - - - - -
23/07:00pm 29.0 ESE 12 14 1011.7 - - - - - - - - -
23/06:30pm 29.0 SE 12 14 1011.3 - - - - - - - - -
23/06:00pm 29.1 SE 12 14 1011.0 - - - - - - - - -
23/05:30pm 29.2 SE 12 14 1010.7 - - - - - - - - -
23/05:00pm 29.3 SE 12 15 1010.2 - - - - - - - - -
23/04:30pm 29.5 SE 12 13 1010.1 - - - - - - - - -
23/04:00pm 29.5 SE 11 13 1009.9 - - - - - - - - -
23/03:30pm 29.5 SE 11 13 1010.1 - - - - - - - - -
23/03:00pm 29.5 SE 11 12 1010.2 - - - - - - - - -
23/02:30pm 29.5 SE 11 13 1010.3 - - - - - - - - -
23/02:00pm 29.6 ESE 10 11 1010.4 - - - - - - - - -
23/01:30pm 29.6 ESE 10 12 1010.5 - - - - - - - - -
23/01:00pm 29.5 ESE 9 11 1010.9 - - - - - - - - -
23/12:30pm 29.4 ESE 9 11 1011.3 - - - - - - - - -
23/12:00pm 29.3 ESE 10 11 1011.6 - - - - - - - - -
23/11:30am 29.3 ESE 10 11 1012.0 - - - - - - - - -
23/11:00am 29.2 ESE 10 13 1012.4 - - - - - - - - -
23/10:30am 29.4 ESE 10 12 1012.6 - - - - - - - - -
23/10:00am 29.3 ESE 10 11 1012.8 - - - - - - - - -
23/09:30am 29.3 E 10 11 1012.8 - - - - - - - - -
23/09:00am 29.4 ESE 11 13 1012.6 - - - - - - - - -
23/08:30am 29.3 E 11 12 1012.5 - - - - - - - - -
23/08:00am 29.4 ESE 9 11 1012.3 - - - - - - - - -
23/07:30am 29.0 E 9 11 1011.9 - - - - - - - - -
23/07:00am 28.9 E 9 11 1011.7 - - - - - - - - -
23/06:30am 29.0 E 11 12 1011.4 - - - - - - - - -
23/06:00am 28.8 E 9 12 1011.0 - - - - - - - - -
23/05:30am 28.8 E 8 10 1010.8 - - - - - - - - -
23/05:00am 28.5 ESE 8 9 1010.6 - - - - - - - - -
23/04:30am 28.4 SE 8 9 1010.3 - - - - - - - - -
23/04:00am 28.3 SE 8 9 1010.3 - - - - - - - - -
23/03:30am 28.3 SE 8 9 1010.1 - - - - - - - - -
23/03:00am 28.4 SE 8 10 1010.1 - - - - - - - - -
23/02:30am 28.6 ESE 9 11 1010.2 - - - - - - - - -
23/02:00am 28.3 ESE 6 7 1010.6 - - - - - - - - -
23/01:30am 28.2 ESE 9 10 1010.6 - - - - - - - - -
23/01:00am 28.3 ESE 12 13 1010.9 - - - - - - - - -
23/12:30am 28.3 ESE 11 12 1011.2 - - - - - - - - -
23/12:00am 28.3 ESE 11 13 1011.4 - - - - - - - - -
 
Date/Time
EST
Temp
°C
Wind Pressure Rain since
9am
mm
Weather Cloud Vis
km
Sea
Height
m
Swell
Dir  Spd
kts
Gust
kts
hPa Trend Height
m
Period
s
Dir
22/11:30pm 28.2 SE 14 17 1011.6 - - - - - - - - -
22/11:00pm 28.5 SE 12 14 1011.9 - - - - - - - - -
22/10:30pm 28.4 SE 13 15 1012.0 - - - - - - - - -
22/10:00pm 28.2 ESE 12 15 1011.8 - - - - - - - - -
22/09:30pm 28.1 SE 17 20 1011.5 - - - - - - - - -
22/09:00pm 28.8 SE 14 16 1011.2 - - - - - - - - -
22/08:30pm 28.7 SE 14 17 1011.0 - - - - - - - - -
22/08:00pm 28.6 SSE 14 16 1010.9 - - - - - - - - -
22/07:30pm 28.7 SSE 14 16 1010.7 - - - - - - - - -
22/07:00pm 28.8 SSE 14 16 1010.2 - - - - - - - - -
22/06:30pm 28.7 SSE 14 17 1010.0 - - - - - - - - -
22/06:00pm 28.7 SSE 14 17 1009.9 - - - - - - - - -
22/05:30pm 28.9 SSE 14 16 1009.5 - - - - - - - - -
22/05:00pm 28.7 SSE 15 17 1009.3 - - - - - - - - -

Other Formats:

Comma delimited format used in spreadsheet applications
http://www.bom.gov.au/fwo/IDQ60701/IDQ60701.94293.axf

JavaScript Object Notation format (JSON) in row-major order
http://www.bom.gov.au/fwo/IDQ60701/IDQ60701.94293.json